Location: Chiroubles
(46.1812°N, 4.6660°E)
Time: 16:28:46
(UTC+00:00)

Transit 4A - Pass Details

Date: 03 December 2020
Orbit: 864 x 980 km, 66.8° (Epoch: 26 January)

Event Time Altitude Azimuth Distance (km) Brightness Sun altitude
Rises 10:17:46 0° 295° (WNW) 3,682 10.6 19.6°
Reaches altitude 10° 10:22:19 10° 325° (NW) 2,741 9.9 19.9°
Maximum altitude 10:24:49 12° 348° (NNW) 2,575 9.7 20.0°
Drops below altitude 10° 10:27:19 10° 11° (NNE) 2,738 9.9 20.1°
Sets 10:31:52 0° 41° (NE) 3,675 10.7 20.3°
